[[{"header":{"parameterUnit":"m.s-1","parameterCategory":2,"la1":30.2991,"la2":30.254,"lo1":-89.0895,"lo2":-89.0444,"dy":0.0017,"dx":0.0017,"nx":28,"ny":28,"refTime":"2024-06-19T09:00:00:Z","depth":"0","parameterNumber":2,"parameterNumberName":"U-component_of_CURRENTS"},"data":[0,0,0,0,0,0,0,0,0,0,0,0,0,0,0,0,0,0,0,0,0,0,0,0,0,0,0,0,0,0,0,0,0,0,0,0,0,0,0,0,0,0,0,0,0,0,0,0,0,0,0,0,0,0,0,0,0,0,-0.2216,-0.2217,0,-0.2198,-0.2197,-0.2196,-0.2152,-0.2152,-0.2151,-0.2151,-0.2054,-0.2052,-0.205,0,0,0,0,0,0,0,0,0,0,0,0,0,-0.2145,-0.2146,-0.2216,-0.2217,-0.2217,-0.2198,-0.2197,-0.2196,-0.2152,-0.2152,-0.2151,-0.2151,-0.2055,-0.2052,-0.2049,0,0,0,0,0,0,0,0,0,0,0,0,0,-0.2151,-0.2147,-0.2216,-0.2197,-0.2195,-0.2198,-0.2197,-0.2196,-0.2152,-0.2152,-0.2151,-0.215,-0.2055,-0.2052,-0.2049,-0.2041,0,0,-0.2039,-0.2037,0,0,0,0,0,0,0,0,-0.2151,-0.2153,-0.2199,-0.2198,-0.2197,-0.2182,-0.2137,-0.2142,-0.2152,-0.2162,-0.2151,-0.215,-0.2094,-0.2087,-0.2078,-0.2036,-0.2032,-0.2039,-0.2037,-0.2035,-0.2034,0,0,0,0,0,0,0,-0.215,-0.2153,-0.2203,-0.22,-0.2198,-0.2166,-0.2166,-0.2137,-0.2126,-0.2162,-0.216,-0.2167,-0.2091,-0.2081,-0.2075,-0.2031,-0.2039,-0.2036,-0.2034,-0.2032,-0.1977,-0.1978,0,0,0,0,0,0,-0.2169,-0.2153,-0.2204,-0.2203,-0.2178,-0.2168,-0.2168,-0.2182,-0.2128,-0.2121,-0.2168,-0.2165,-0.2087,-0.2079,-0.2071,-0.2066,-0.2035,-0.2032,-0.203,-0.1977,-0.1977,-0.1978,0,0,0,0,0,0,-0.2167,-0.2174,-0.2205,-0.2181,-0.2184,-0.2171,-0.2187,-0.2182,-0.2175,-0.2134,-0.2125,-0.2165,-0.2086,-0.2076,-0.2051,-0.2062,-0.2031,-0.2028,-0.1976,-0.1977,-0.1978,-0.2051,0,0,0,0,0,0,-0.2166,-0.2173,-0.2181,-0.2183,-0.2186,-0.2214,-0.2188,-0.2183,-0.2183,-0.2179,-0.2129,-0.2119,-0.2085,-0.2056,-0.2048,-0.2057,-0.2025,-0.1976,-0.1977,-0.1978,-0.2048,-0.2054,-0.2059,0,0,0,0,0,-0.2163,-0.2179,-0.2182,-0.2188,-0.2201,-0.2215,-0.2213,-0.2197,-0.2183,-0.2185,-0.2151,-0.2121,-0.2056,-0.2054,-0.2044,-0.2052,-0.1975,-0.1976,-0.1977,-0.2045,-0.2053,-0.2059,0,0,0,0,0,0,-0.2147,-0.2177,-0.2179,-0.2203,-0.2213,-0.221,-0.221,-0.2204,-0.2179,-0.2169,-0.2126,-0.2114,-0.2096,-0.2065,-0.2064,-0.2039,-0.2011,-0.201,-0.2066,-0.2073,-0.2078,-0.2076,-0.2022,0,0,0,0,0,-0.2153,-0.2173,-0.2194,-0.2211,-0.222,-0.2216,-0.2217,-0.2212,-0.2198,-0.2186,-0.2155,-0.2119,-0.2094,-0.2077,-0.2047,-0.2033,-0.2014,-0.2032,-0.2038,-0.2043,-0.2034,-0.2018,-0.2022,-0.1982,-0.1982,-0.1982,0,0,-0.2151,-0.217,-0.218,-0.2209,-0.2212,-0.223,-0.2214,-0.2223,-0.2229,-0.2179,-0.2166,-0.2138,-0.2095,-0.208,-0.2069,-0.2055,-0.2051,-0.2044,-0.2049,-0.2037,-0.202,-0.2023,-0.2027,-0.1983,-0.1983,-0.1982,0,0,-0.2163,-0.2178,-0.22,-0.2216,-0.2235,-0.2237,-0.2246,-0.2249,-0.224,-0.2235,-0.2199,-0.2179,-0.214,-0.2113,-0.2095,-0.2114,-0.2083,-0.2107,-0.2132,-0.2118,-0.2121,-0.2123,-0.2137,-0.214,-0.2109,-0.211,-0.211,0,-0.2159,-0.2192,-0.2206,-0.2233,-0.2245,-0.2246,-0.2267,-0.2265,-0.2257,-0.2251,-0.2238,-0.2187,-0.2155,-0.2134,-0.2141,-0.2126,-0.2121,-0.2112,-0.2126,-0.2127,-0.2129,-0.2142,-0.2144,-0.2113,-0.2113,-0.2112,-0.2112,0,-0.2189,-0.2215,-0.2229,-0.2265,-0.2279,-0.2296,-0.2308,-0.2311,-0.2303,-0.2297,-0.2278,-0.2238,-0.2204,-0.22,-0.2174,-0.2168,-0.2165,-0.2138,-0.2111,-0.2137,-0.215,-0.2151,-0.2118,-0.2117,-0.2116,-0.2115,0,0,-0.2176,-0.2239,-0.2239,-0.2261,-0.2295,-0.2307,-0.2327,-0.234,-0.2345,-0.2331,-0.233,-0.2292,-0.2268,-0.2244,-0.2213,-0.22,-0.2218,-0.2176,-0.2173,-0.2195,-0.221,-0.2245,-0.2249,-0.2195,-0.2195,-0.2195,-0.2227,0,-0.219,-0.2242,-0.2268,-0.2304,-0.2332,-0.2345,-0.2365,-0.2374,-0.2372,-0.2371,-0.2337,-0.2317,-0.2286,-0.2269,-0.2254,-0.2219,-0.2219,-0.2213,-0.2174,-0.2174,-0.2206,-0.225,-0.23,-0.2335,-0.2228,-0.2228,-0.2228,0,-0.2204,-0.2238,-0.2282,-0.233,-0.2341,-0.2361,-0.2382,-0.2395,-0.2401,-0.2399,-0.238,-0.2356,-0.2332,-0.23,-0.2264,-0.2263,-0.2242,-0.222,-0.222,-0.2221,-0.221,-0.2283,-0.234,-0.2365,-0.2229,-0.2229,-0.2229,0,-0.2181,-0.2241,-0.2272,-0.229,-0.2348,-0.2361,-0.2377,-0.2397,-0.2413,-0.2405,-0.242,-0.2384,-0.2368,-0.233,-0.2293,-0.2277,-0.2264,-0.2235,-0.2252,-0.2256,-0.2272,-0.2277,-0.2348,-0.2214,-0.2214,-0.2214,-0.2214,0,-0.2184,-0.2204,-0.2263,-0.228,-0.2306,-0.2347,-0.237,-0.2381,-0.2414,-0.2435,-0.242,-0.2429,-0.2373,-0.2362,-0.2317,-0.2302,-0.2285,-0.2267,-0.2265,-0.2303,-0.231,-0.2309,-0.2284,-0.2215,-0.2215,-0.2214,-0.2214,0,-0.2147,-0.2196,-0.2226,-0.2282,-0.23,-0.2305,-0.2368,-0.2389,-0.2423,-0.2452,-0.2453,-0.2468,-0.2456,-0.2421,-0.2369,-0.2346,-0.2314,-0.2311,-0.2379,-0.2383,-0.2422,-0.2398,-0.2364,-0.2334,-0.2342,-0.2343,-0.2344,0,-0.2132,-0.2148,-0.2202,-0.222,-0.2242,-0.2275,-0.2308,-0.2368,-0.24,-0.2473,-0.2485,-0.2505,-0.2524,-0.2496,-0.246,-0.2428,-0.2359,-0.2436,-0.2405,-0.2448,-0.2418,-0.2347,-0.2318,-0.247,-0.2472,-0.2473,-0.2474,0,-0.208,-0.2095,-0.2117,-0.2159,-0.2194,-0.2241,-0.2292,-0.2335,-0.2412,-0.247,-0.2543,-0.2576,-0.2598,-0.2617,-0.2583,-0.253,-0.2436,-0.2466,-0.2483,-0.2506,-0.2458,-0.2421,-0.2442,-0.2488,-0.2486,-0.2485,-0.2485,-0.2484,-0.2012,-0.201,-0.2042,-0.2068,-0.2119,-0.2178,-0.2177,-0.2287,-0.2358,-0.2441,-0.2546,-0.263,-0.2725,-0.2705,-0.267,-0.2655,-0.2537,-0.2613,-0.2579,-0.2503,-0.2477,-0.2545,-0.2598,-0.2597,-0.2597,-0.2596,-0.2596,0,-0.1912,-0.1923,-0.1952,-0.1978,-0.1988,-0.2056,-0.2134,-0.2127,-0.219,-0.2391,-0.2489,-0.2736,-0.2808,-0.2846,-0.288,-0.2813,-0.2708,-0.273,-0.2654,-0.2613,-0.2678,-0.2691,-0.2799,-0.2799,-0.2799,-0.2799,-0.2799,-0.2799,-0.1857,-0.1838,-0.1858,-0.1827,-0.1847,-0.1817,-0.1835,-0.1878,-0.1984,-0.2177,-0.2405,-0.2582,-0.2685,-0.3011,-0.3015,-0.2911,-0.2793,-0.2736,-0.2657,-0.2747,-0.2733,-0.2721,-0.273,-0.2845,-0.2845,-0.2598,-0.2596,-0.2595]},{"header":{"parameterUnit":"m.s-1","parameterCategory":2,"la1":30.2991,"la2":30.254,"lo1":-89.0895,"lo2":-89.0444,"dy":0.0017,"dx":0.0017,"nx":28,"ny":28,"refTime":"2024-06-19T09:00:00:Z","depth":"0","parameterNumber":3,"parameterNumberName":"V-component_of_CURRENTS"},"data":[0,0,0,0,0,0,0,0,0,0,0,0,0,0,0,0,0,0,0,0,0,0,0,0,0,0,0,0,0,0,0,0,0,0,0,0,0,0,0,0,0,0,0,0,0,0,0,0,0,0,0,0,0,0,0,0,0,0,-0.0266,-0.0265,0,-0.0179,-0.0178,-0.0178,-0.0142,-0.0142,-0.0142,-0.0142,-0.008,-0.0078,-0.0077,0,0,0,0,0,0,0,0,0,0,0,0,0,-0.0389,-0.0388,-0.0266,-0.0265,-0.0264,-0.0179,-0.0178,-0.0177,-0.0142,-0.0142,-0.0142,-0.0142,-0.008,-0.0079,-0.0077,0,0,0,0,0,0,0,0,0,0,0,0,0,-0.0325,-0.0387,-0.0266,-0.0234,-0.023,-0.018,-0.0178,-0.0177,-0.0142,-0.0142,-0.0142,-0.0142,-0.0081,-0.0079,-0.0076,-0.0062,0,0,-0.0069,-0.0068,0,0,0,0,0,0,0,0,-0.0328,-0.0321,-0.024,-0.0236,-0.0232,-0.0169,-0.0199,-0.0139,-0.0142,-0.0178,-0.0142,-0.0142,-0.0111,-0.0106,-0.0092,-0.0059,-0.0056,-0.0069,-0.0067,-0.0066,-0.0066,0,0,0,0,0,0,0,-0.0333,-0.0324,-0.0234,-0.0239,-0.0233,-0.0219,-0.0211,-0.0187,-0.0148,-0.0174,-0.0171,-0.0158,-0.0109,-0.0095,-0.0091,-0.0056,-0.0069,-0.0067,-0.0065,-0.0064,0.0005,0.0005,0,0,0,0,0,0,-0.0339,-0.0328,-0.0237,-0.0231,-0.0278,-0.0217,-0.0207,-0.0191,-0.0147,-0.014,-0.0158,-0.0156,-0.0099,-0.0094,-0.0088,-0.0058,-0.0066,-0.0064,-0.0063,0.0004,0.0005,0.0005,0,0,0,0,0,0,-0.0342,-0.0332,-0.024,-0.0276,-0.0263,-0.0215,-0.0197,-0.0189,-0.0174,-0.0134,-0.0127,-0.015,-0.0099,-0.0092,-0.0062,-0.0056,-0.0063,-0.0061,0.0004,0.0004,0.0005,-0.0005,0,0,0,0,0,0,-0.0346,-0.0334,-0.0332,-0.0277,-0.0261,-0.0214,-0.0197,-0.0188,-0.0165,-0.0162,-0.0125,-0.0119,-0.0098,-0.0066,-0.006,-0.0053,-0.0059,0.0003,0.0004,0.0005,-0.0005,-0.0005,-0.0005,0,0,0,0,0,-0.0351,-0.0351,-0.0332,-0.0321,-0.0257,-0.0213,-0.0205,-0.0172,-0.0164,-0.0159,-0.0129,-0.012,-0.0057,-0.0063,-0.0056,-0.0049,0.0003,0.0004,0.0005,-0.0005,-0.0005,-0.0005,0,0,0,0,0,0,-0.0411,-0.0345,-0.0324,-0.0305,-0.0262,-0.0207,-0.0201,-0.0174,-0.0146,-0.0147,-0.0112,-0.0104,-0.0078,-0.0061,-0.0069,-0.0027,-0.0027,-0.0025,-0.0037,-0.0037,-0.0036,-0.0044,-0.0057,0,0,0,0,0,-0.042,-0.0399,-0.0335,-0.0323,-0.0303,-0.0252,-0.0233,-0.0206,-0.0169,-0.0157,-0.0125,-0.0096,-0.0069,-0.0052,-0.0029,-0.0003,0.0019,0.0006,0.0006,0.0006,0.0005,0.0044,0.0048,0.0008,0.0008,0.0008,0,0,-0.0442,-0.0402,-0.0392,-0.0334,-0.0302,-0.0274,-0.0242,-0.0214,-0.0189,-0.0155,-0.0123,-0.0097,-0.0063,-0.0034,-0.0021,-0.0018,0.003,0.0007,0.0007,0.0006,0.0045,0.0049,0.0053,0.0008,0.0008,0.0008,0,0,-0.0475,-0.0438,-0.0431,-0.0392,-0.0338,-0.03,-0.0292,-0.0232,-0.0206,-0.0169,-0.0139,-0.0104,-0.0064,-0.003,-0.0011,0.0005,0.0027,0.0008,0.0009,0.0047,0.0051,0.0054,0.0093,0.01,0.0012,0.0012,0.0012,0,-0.0508,-0.048,-0.0425,-0.0404,-0.0375,-0.0313,-0.0298,-0.0258,-0.0196,-0.0171,-0.0165,-0.0087,-0.0061,-0.0011,-0.0006,0.0006,0.003,0.0005,0.0048,0.0051,0.0055,0.0094,0.0102,0.0012,0.0012,0.0012,0.0012,0,-0.0527,-0.0503,-0.0497,-0.0442,-0.0407,-0.0385,-0.0314,-0.0279,-0.0241,-0.0196,-0.0142,-0.0095,-0.0047,-0.0033,-0.0015,0.0028,0.0037,0.004,0.0045,0.0058,0.0099,0.0107,0.0011,0.0012,0.0012,0.0012,0,0,-0.0601,-0.0526,-0.0524,-0.0502,-0.0424,-0.0397,-0.0349,-0.0284,-0.0249,-0.0192,-0.0144,-0.009,-0.0058,-0.0033,0.0003,0.0038,0.0086,0.0047,0.0049,0.0083,0.0173,0.0226,0.0241,0.0095,0.0096,0.0097,0.0193,0,-0.0633,-0.0615,-0.0556,-0.053,-0.0513,-0.0429,-0.0387,-0.0319,-0.0256,-0.0194,-0.0128,-0.0081,-0.0058,-0.0035,0.0009,0.0068,0.0106,0.006,0.0157,0.016,0.0204,0.0252,0.0322,0.0418,0.0201,0.0202,0.0203,0,-0.0667,-0.0647,-0.0637,-0.0564,-0.0547,-0.0517,-0.0431,-0.0385,-0.0278,-0.0227,-0.0154,-0.0099,-0.0022,-0.0018,0.0099,0.0069,0.0116,0.0158,0.0162,0.0221,0.0229,0.0369,0.0441,0.0585,0.0216,0.0215,0.0214,0,-0.075,-0.0696,-0.0692,-0.0669,-0.0583,-0.0555,-0.0508,-0.0406,-0.0358,-0.0252,-0.0203,-0.0102,-0.0045,0.0028,0.013,0.0112,0.0255,0.0241,0.0336,0.034,0.0424,0.0434,0.0645,0.031,0.031,0.031,0.0309,0,-0.0805,-0.0796,-0.0732,-0.0729,-0.0714,-0.0627,-0.0587,-0.0517,-0.041,-0.0344,-0.0236,-0.0154,-0.0033,0.0072,0.0141,0.0284,0.027,0.0352,0.0376,0.0424,0.0432,0.0578,0.0618,0.0313,0.0312,0.0312,0.0311,0,-0.0891,-0.0851,-0.0841,-0.0774,-0.0755,-0.0749,-0.0653,-0.0616,-0.0501,-0.0407,-0.0376,-0.0189,-0.0032,0.0095,0.0238,0.0311,0.0509,0.0466,0.0519,0.0548,0.0762,0.0797,0.0992,0.1011,0.0591,0.0593,0.0595,0,-0.0932,-0.0939,-0.0902,-0.0907,-0.0878,-0.0846,-0.0819,-0.0693,-0.0633,-0.0419,-0.0375,-0.0185,-0.0013,0.0242,0.0403,0.0567,0.0613,0.0696,0.0672,0.0809,0.0866,0.0871,0.087,0.0782,0.0785,0.0788,0.079,0,-0.1007,-0.0995,-0.0993,-0.1016,-0.1002,-0.097,-0.0908,-0.0863,-0.0689,-0.0564,-0.0352,-0.019,0.0123,0.0409,0.0629,0.0696,0.0806,0.0752,0.0891,0.1041,0.1065,0.1082,0.0677,0.0813,0.081,0.0809,0.0807,0.0806,-0.1061,-0.1091,-0.1098,-0.1117,-0.1111,-0.108,-0.105,-0.0936,-0.0813,-0.0572,-0.0364,-0.0045,0.0414,0.0774,0.0854,0.1104,0.1,0.1166,0.1199,0.1193,0.1219,0.0865,0.1023,0.1023,0.1022,0.1021,0.102,0,-0.1126,-0.1156,-0.1192,-0.1205,-0.1222,-0.118,-0.1097,-0.1027,-0.0878,-0.0571,-0.0309,0.0349,0.0761,0.1098,0.1502,0.1591,0.1524,0.1605,0.1645,0.1617,0.1329,0.1347,0.1588,0.1588,0.1588,0.1588,0.1588,0.1587,-0.1159,-0.1224,-0.1248,-0.1303,-0.1303,-0.1287,-0.1237,-0.1093,-0.087,-0.0388,0.0057,0.0399,0.1031,0.182,0.2132,0.2061,0.208,0.2057,0.2037,0.1883,0.1844,0.1807,0.1837,0.2177,0.2178,0.231,0.2312,0.2313]}],[{"header":{"parameterUnit":"m.s-1","parameterCategory":2,"la1":30.2991,"la2":30.254,"lo1":-89.0895,"lo2":-89.0444,"dy":0.0017,"dx":0.0017,"nx":28,"ny":28,"refTime":"2024-06-19T09:00:00:Z","depth":"2","parameterNumber":2,"parameterNumberName":"U-component_of_CURRENTS"},"data":[0,0,0,0,0,0,0,0,0,0,0,0,0,0,0,0,0,0,0,0,0,0,0,0,0,0,0,0,0,0,0,0,0,0,0,0,0,0,0,0,0,0,0,0,0,0,0,0,0,0,0,0,0,0,0,0,0,0,-0.2143,-0.2143,0,-0.2124,-0.2124,-0.2123,-0.208,-0.208,-0.208,-0.2079,-0.1985,-0.1983,-0.1981,0,0,0,0,0,0,0,0,0,0,0,0,0,-0.2072,-0.2074,-0.2142,-0.2143,-0.2143,-0.2124,-0.2124,-0.2123,-0.2081,-0.208,-0.208,-0.2079,-0.1986,-0.1983,-0.198,0,0,0,0,0,0,0,0,0,0,0,0,0,-0.2078,-0.2074,-0.2142,-0.2124,-0.2123,-0.2125,-0.2124,-0.2123,-0.2081,-0.208,-0.208,-0.2079,-0.1986,-0.1983,-0.198,-0.197,0,0,-0.197,-0.1969,0,0,0,0,0,0,0,0,-0.2078,-0.208,-0.2126,-0.2125,-0.2124,-0.2109,-0.2064,-0.207,-0.2081,-0.209,-0.2079,-0.2079,-0.2023,-0.2017,-0.2008,-0.1966,-0.1962,-0.197,-0.1968,-0.1966,-0.1965,0,0,0,0,0,0,0,-0.2078,-0.208,-0.2129,-0.2127,-0.2125,-0.2094,-0.2094,-0.2065,-0.2054,-0.209,-0.2088,-0.2095,-0.2021,-0.2011,-0.2005,-0.1961,-0.197,-0.1967,-0.1965,-0.1964,-0.1909,-0.191,0,0,0,0,0,0,-0.2096,-0.2081,-0.213,-0.2129,-0.2105,-0.2096,-0.2096,-0.211,-0.2056,-0.205,-0.2096,-0.2093,-0.2017,-0.2009,-0.2002,-0.1998,-0.1966,-0.1963,-0.1961,-0.1909,-0.1909,-0.191,0,0,0,0,0,0,-0.2095,-0.2101,-0.2131,-0.2108,-0.2111,-0.2099,-0.2114,-0.211,-0.2103,-0.2063,-0.2054,-0.2095,-0.2016,-0.2006,-0.1982,-0.1993,-0.1962,-0.1959,-0.1908,-0.1909,-0.1909,-0.1983,0,0,0,0,0,0,-0.2093,-0.2101,-0.2108,-0.211,-0.2113,-0.214,-0.2115,-0.211,-0.2111,-0.2108,-0.2059,-0.2049,-0.2015,-0.1987,-0.1978,-0.1988,-0.1956,-0.1907,-0.1908,-0.1909,-0.198,-0.1986,-0.1991,0,0,0,0,0,-0.209,-0.2107,-0.2109,-0.2115,-0.2127,-0.2142,-0.2139,-0.2124,-0.2112,-0.2114,-0.2081,-0.2051,-0.1987,-0.1985,-0.1975,-0.1984,-0.1907,-0.1908,-0.1909,-0.1977,-0.1985,-0.1991,0,0,0,0,0,0,-0.2076,-0.2105,-0.2107,-0.213,-0.2141,-0.2137,-0.2137,-0.2131,-0.2108,-0.2098,-0.2056,-0.2044,-0.2027,-0.1996,-0.1995,-0.1971,-0.1943,-0.1942,-0.1998,-0.2005,-0.201,-0.2008,-0.1953,0,0,0,0,0,-0.2081,-0.2101,-0.2122,-0.2138,-0.2147,-0.2144,-0.2145,-0.214,-0.2126,-0.2115,-0.2085,-0.205,-0.2025,-0.2008,-0.1978,-0.1965,-0.1946,-0.1964,-0.197,-0.1975,-0.1966,-0.195,-0.1954,-0.1914,-0.1914,-0.1914,0,0,-0.208,-0.2098,-0.2109,-0.2137,-0.2139,-0.2158,-0.2141,-0.2151,-0.2158,-0.2108,-0.2096,-0.2068,-0.2026,-0.2011,-0.2001,-0.1986,-0.1984,-0.1977,-0.1981,-0.1969,-0.1952,-0.1956,-0.1959,-0.1914,-0.1914,-0.1914,0,0,-0.2092,-0.2107,-0.2129,-0.2144,-0.2164,-0.2165,-0.2174,-0.2178,-0.2169,-0.2164,-0.213,-0.211,-0.2072,-0.2045,-0.2026,-0.2045,-0.2016,-0.2039,-0.2065,-0.205,-0.2053,-0.2056,-0.207,-0.2072,-0.2042,-0.2042,-0.2042,0,-0.2089,-0.2121,-0.2135,-0.2161,-0.2173,-0.2174,-0.2196,-0.2194,-0.2186,-0.218,-0.2169,-0.2118,-0.2087,-0.2066,-0.2073,-0.2058,-0.2053,-0.2045,-0.2059,-0.206,-0.2061,-0.2074,-0.2077,-0.2046,-0.2045,-0.2045,-0.2044,0,-0.2118,-0.2144,-0.2158,-0.2193,-0.2207,-0.2224,-0.2236,-0.224,-0.2232,-0.2227,-0.2209,-0.2169,-0.2136,-0.2132,-0.2106,-0.21,-0.2098,-0.2071,-0.2044,-0.207,-0.2082,-0.2084,-0.2051,-0.205,-0.2048,-0.2048,0,0,-0.2107,-0.2168,-0.2169,-0.219,-0.2224,-0.2236,-0.2256,-0.2269,-0.2274,-0.2261,-0.226,-0.2223,-0.22,-0.2176,-0.2145,-0.2133,-0.2152,-0.2109,-0.2107,-0.2129,-0.2143,-0.2178,-0.2182,-0.2129,-0.2129,-0.2129,-0.2161,0,-0.2121,-0.2172,-0.2197,-0.2233,-0.2261,-0.2274,-0.2293,-0.2303,-0.2301,-0.2301,-0.2267,-0.2248,-0.2218,-0.2202,-0.2187,-0.2152,-0.2152,-0.2147,-0.2108,-0.2107,-0.2138,-0.2183,-0.1934,-0.1944,-0.2162,-0.2162,-0.2162,0,-0.2136,-0.2168,-0.2212,-0.2259,-0.227,-0.229,-0.2312,-0.2324,-0.2331,-0.233,-0.2312,-0.2288,-0.2264,-0.2233,-0.2198,-0.2197,-0.2176,-0.2154,-0.2154,-0.2154,-0.2142,-0.1945,-0.1937,-0.2163,-0.2163,-0.2163,-0.2163,0,-0.2113,-0.2172,-0.2203,-0.2221,-0.2277,-0.2291,-0.2307,-0.2327,-0.2343,-0.2336,-0.2352,-0.2316,-0.2301,-0.2263,-0.2227,-0.2211,-0.2198,-0.2169,-0.2186,-0.2189,-0.1951,-0.1934,-0.2148,-0.2148,-0.2148,-0.2148,-0.2148,0,-0.2117,-0.2136,-0.2195,-0.2212,-0.2238,-0.2278,-0.2302,-0.2313,-0.2346,-0.2367,-0.2353,-0.2362,-0.2306,-0.2295,-0.2251,-0.2236,-0.2218,-0.2201,-0.2198,-0.1976,-0.1962,-0.2117,-0.2112,-0.2149,-0.2149,-0.2149,-0.2148,0,-0.208,-0.2129,-0.2159,-0.2215,-0.2232,-0.2239,-0.23,-0.2322,-0.2356,-0.2385,-0.2387,-0.24,-0.2388,-0.2354,-0.2302,-0.2279,-0.2247,-0.2244,-0.2013,-0.1984,-0.2246,-0.2245,-0.2272,-0.2273,-0.2274,-0.2276,-0.2276,0,-0.2066,-0.2082,-0.2135,-0.2154,-0.2176,-0.221,-0.2242,-0.2302,-0.2334,-0.2406,-0.2417,-0.2437,-0.2441,-0.2412,-0.2293,-0.2238,-0.2294,-0.2056,-0.1985,-0.2264,-0.2257,-0.2255,-0.2252,-0.1699,-0.1695,-0.1692,-0.1689,0,-0.2015,-0.2031,-0.2052,-0.2094,-0.2129,-0.2175,-0.2226,-0.2268,-0.2344,-0.2387,-0.2458,-0.2477,-0.2422,-0.2248,-0.2182,-0.2104,-0.2046,-0.1999,-0.2301,-0.174,-0.1735,-0.1726,-0.1739,-0.1661,-0.1663,-0.1666,-0.1667,-0.1668,-0.1948,-0.1946,-0.1978,-0.2005,-0.2055,-0.2112,-0.2111,-0.2157,-0.2204,-0.2171,-0.2351,-0.2256,-0.2221,-0.1967,-0.1889,-0.1782,-0.1924,-0.1832,-0.1835,-0.1844,-0.1805,-0.1806,-0.1739,-0.1742,-0.1745,-0.1747,-0.1749,0,-0.1825,-0.186,-0.1889,-0.1915,-0.1894,-0.1993,-0.2068,-0.1962,-0.1923,-0.1949,-0.1949,-0.1727,-0.1672,-0.1641,-0.1425,-0.145,-0.1339,-0.1415,-0.1248,-0.1277,-0.1304,-0.1232,-0.1016,-0.1014,-0.1013,-0.1011,0,0,-0.1764,-0.1734,-0.1753,-0.1705,-0.1747,-0.1653,-0.1668,-0.1531,-0.1462,-0.1295,-0.1251,-0.1421,-0.1539,-0.1242,-0.1206,-0.1083,-0.1145,-0.101,-0.1584,-0.1408,-0.1431,-0.1525,-0.1449,0,0,0,0,0]},{"header":{"parameterUnit":"m.s-1","parameterCategory":2,"la1":30.2991,"la2":30.254,"lo1":-89.0895,"lo2":-89.0444,"dy":0.0017,"dx":0.0017,"nx":28,"ny":28,"refTime":"2024-06-19T09:00:00:Z","depth":"2","parameterNumber":3,"parameterNumberName":"V-component_of_CURRENTS"},"data":[0,0,0,0,0,0,0,0,0,0,0,0,0,0,0,0,0,0,0,0,0,0,0,0,0,0,0,0,0,0,0,0,0,0,0,0,0,0,0,0,0,0,0,0,0,0,0,0,0,0,0,0,0,0,0,0,0,0,-0.0248,-0.0247,0,-0.0162,-0.0161,-0.016,-0.0125,-0.0125,-0.0125,-0.0125,-0.0065,-0.0063,-0.0061,0,0,0,0,0,0,0,0,0,0,0,0,0,-0.0371,-0.0369,-0.0249,-0.0247,-0.0246,-0.0162,-0.0161,-0.016,-0.0125,-0.0125,-0.0125,-0.0125,-0.0065,-0.0063,-0.0061,0,0,0,0,0,0,0,0,0,0,0,0,0,-0.0307,-0.0369,-0.0249,-0.0217,-0.0213,-0.0162,-0.0161,-0.016,-0.0125,-0.0125,-0.0125,-0.0125,-0.0066,-0.0063,-0.0061,-0.0046,0,0,-0.0054,-0.0053,0,0,0,0,0,0,0,0,-0.0311,-0.0303,-0.0223,-0.0219,-0.0214,-0.0152,-0.0182,-0.0122,-0.0125,-0.0161,-0.0125,-0.0125,-0.0095,-0.009,-0.0077,-0.0044,-0.0041,-0.0053,-0.0052,-0.0051,-0.005,0,0,0,0,0,0,0,-0.0315,-0.0306,-0.0217,-0.0221,-0.0216,-0.0202,-0.0194,-0.0171,-0.0131,-0.0158,-0.0154,-0.0141,-0.0093,-0.0079,-0.0075,-0.004,-0.0054,-0.0051,-0.005,-0.0049,0.002,0.002,0,0,0,0,0,0,-0.0322,-0.031,-0.0219,-0.0214,-0.0261,-0.02,-0.019,-0.0174,-0.0131,-0.0123,-0.0141,-0.014,-0.0083,-0.0078,-0.0073,-0.0043,-0.0051,-0.0049,-0.0047,0.0019,0.002,0.002,0,0,0,0,0,0,-0.0325,-0.0314,-0.0223,-0.0259,-0.0246,-0.0198,-0.018,-0.0172,-0.0157,-0.0118,-0.0111,-0.0133,-0.0083,-0.0076,-0.0047,-0.0041,-0.0048,-0.0045,0.0019,0.0019,0.002,0.0011,0,0,0,0,0,0,-0.0328,-0.0316,-0.0314,-0.0259,-0.0244,-0.0196,-0.0179,-0.0171,-0.0148,-0.0145,-0.0109,-0.0103,-0.0082,-0.005,-0.0044,-0.0037,-0.0044,0.0018,0.0019,0.002,0.001,0.0011,0.0011,0,0,0,0,0,-0.0333,-0.0333,-0.0314,-0.0303,-0.024,-0.0196,-0.0188,-0.0155,-0.0148,-0.0142,-0.0112,-0.0104,-0.0042,-0.0048,-0.0041,-0.0033,0.0018,0.0019,0.002,0.001,0.0011,0.0011,0,0,0,0,0,0,-0.0393,-0.0327,-0.0306,-0.0287,-0.0245,-0.0189,-0.0184,-0.0157,-0.0129,-0.0131,-0.0096,-0.0088,-0.0062,-0.0046,-0.0053,-0.0012,-0.0012,-0.001,-0.0022,-0.0021,-0.0021,-0.0028,-0.0042,0,0,0,0,0,-0.0402,-0.0381,-0.0318,-0.0305,-0.0286,-0.0235,-0.0216,-0.0189,-0.0152,-0.014,-0.0109,-0.008,-0.0053,-0.0036,-0.0013,0.0013,0.0034,0.0021,0.0022,0.0022,0.0021,0.0059,0.0063,0.0023,0.0023,0.0023,0,0,-0.0424,-0.0384,-0.0374,-0.0316,-0.0284,-0.0256,-0.0224,-0.0197,-0.0172,-0.0139,-0.0107,-0.0081,-0.0047,-0.0018,-0.0005,-0.0002,0.0046,0.0023,0.0023,0.0021,0.0061,0.0065,0.0068,0.0023,0.0023,0.0023,0,0,-0.0456,-0.0419,-0.0413,-0.0374,-0.032,-0.0282,-0.0274,-0.0215,-0.0189,-0.0152,-0.0122,-0.0088,-0.0048,-0.0014,0.0006,0.0022,0.0043,0.0025,0.0026,0.0064,0.0068,0.0071,0.0109,0.0116,0.0029,0.0029,0.0029,0,-0.0489,-0.0461,-0.0407,-0.0385,-0.0357,-0.0295,-0.028,-0.024,-0.0179,-0.0153,-0.0148,-0.007,-0.0044,0.0006,0.0011,0.0023,0.0046,0.0022,0.0064,0.0068,0.0072,0.011,0.0118,0.0029,0.0029,0.0029,0.0029,0,-0.0508,-0.0484,-0.0478,-0.0424,-0.0388,-0.0366,-0.0296,-0.0261,-0.0223,-0.0178,-0.0124,-0.0078,-0.003,-0.0016,0.0003,0.0046,0.0054,0.0057,0.0062,0.0075,0.0115,0.0123,0.0028,0.0028,0.0029,0.0029,0,0,-0.0581,-0.0507,-0.0505,-0.0483,-0.0405,-0.0378,-0.033,-0.0265,-0.023,-0.0173,-0.0126,-0.0071,-0.004,-0.0015,0.002,0.0056,0.0104,0.0064,0.0067,0.01,0.0189,0.0241,0.0255,0.0112,0.0114,0.0114,0.0208,0,-0.0613,-0.0595,-0.0536,-0.051,-0.0493,-0.0409,-0.0368,-0.03,-0.0237,-0.0175,-0.0109,-0.0063,-0.0039,-0.0017,0.0027,0.0086,0.0124,0.0078,0.0173,0.0176,0.0219,0.0266,0.0204,0.0287,0.0217,0.0218,0.0219,0,-0.0647,-0.0627,-0.0617,-0.0544,-0.0528,-0.0498,-0.0412,-0.0366,-0.0259,-0.0208,-0.0136,-0.0081,-0.0004,0.0001,0.0117,0.0086,0.0133,0.0175,0.0179,0.0236,0.0244,0.0262,0.0305,0.0233,0.0232,0.0231,0.023,0,-0.0731,-0.0676,-0.0672,-0.0648,-0.0563,-0.0536,-0.0489,-0.0387,-0.0339,-0.0233,-0.0184,-0.0084,-0.0027,0.0045,0.0147,0.0129,0.0271,0.0257,0.0349,0.0353,0.0325,0.0325,0.0326,0.0326,0.0325,0.0325,0.0325,0,-0.0784,-0.0775,-0.0712,-0.0709,-0.0694,-0.0607,-0.0568,-0.0498,-0.0392,-0.0326,-0.0218,-0.0137,-0.0016,0.0088,0.0157,0.0298,0.0285,0.0365,0.0389,0.0321,0.032,0.0285,0.0279,0.0329,0.0328,0.0327,0.0327,0,-0.087,-0.0831,-0.0821,-0.0754,-0.0735,-0.0729,-0.0634,-0.0598,-0.0483,-0.039,-0.0359,-0.0173,-0.0017,0.011,0.0252,0.0324,0.0434,0.0477,0.0398,0.0411,0.0485,0.0477,0.0594,0.0597,0.0599,0.0601,0.0603,0,-0.0911,-0.0918,-0.0881,-0.0887,-0.0858,-0.0827,-0.08,-0.0675,-0.0615,-0.0402,-0.036,-0.0171,-0.0005,0.0248,0.0376,0.0529,0.0514,0.0565,0.0524,0.0505,0.0516,0.0505,0.0494,0.0478,0.0479,0.0479,0.048,0,-0.0986,-0.0975,-0.0973,-0.0996,-0.0983,-0.0951,-0.0889,-0.0845,-0.0673,-0.0551,-0.0342,-0.0186,0.0093,0.0288,0.0493,0.0554,0.0539,0.0582,0.0589,0.0428,0.0406,0.0413,0.0405,0.0483,0.0483,0.0483,0.0483,0.0482,-0.104,-0.107,-0.1078,-0.1097,-0.1092,-0.1061,-0.1031,-0.0922,-0.0803,-0.059,-0.0392,-0.0149,0.0098,0.0378,0.0523,0.0611,0.0619,0.062,0.0614,0.0609,0.0587,0.0572,0.0675,0.0676,0.0676,0.0677,0.0678,0,-0.1094,-0.1135,-0.1171,-0.1185,-0.1191,-0.1162,-0.1079,-0.1005,-0.0864,-0.0656,-0.0433,-0.0146,0.0112,0.0328,0.0491,0.0639,0.0575,0.0636,0.0531,0.0528,0.0525,0.0493,0.056,0.056,0.056,0.056,0,0,-0.1124,-0.1184,-0.1208,-0.1259,-0.1269,-0.1238,-0.1189,-0.1056,-0.09,-0.0676,-0.0499,-0.0233,0.0096,0.0198,0.0385,0.047,0.0436,0.0446,0.0522,0.037,0.0365,0.0501,0.0448,0,0,0,0,0]}],[{"header":{"parameterUnit":"m.s-1","parameterCategory":2,"la1":30.2991,"la2":30.254,"lo1":-89.0895,"lo2":-89.0444,"dy":0.0017,"dx":0.0017,"nx":28,"ny":28,"refTime":"2024-06-19T09:00:00:Z","depth":"4","parameterNumber":2,"parameterNumberName":"U-component_of_CURRENTS"},"data":[0,0,0,0,0,0,0,0,0,0,0,0,0,0,0,0,0,0,0,0,0,0,0,0,0,0,0,0,0,0,0,0,0,0,0,0,0,0,0,0,0,0,0,0,0,0,0,0,0,0,0,0,0,0,0,0,0,0,-0.1061,-0.1062,0,-0.1081,-0.1081,-0.1081,-0.1096,-0.1096,-0.1097,-0.1097,-0.1104,-0.1104,-0.1104,0,0,0,0,0,0,0,0,0,0,0,0,0,-0.1004,-0.1005,-0.1061,-0.1062,-0.1062,-0.1081,-0.1081,-0.1081,-0.1096,-0.1096,-0.1097,-0.1097,-0.1104,-0.1104,-0.1104,0,0,0,0,0,0,0,0,0,0,0,0,0,-0.1024,-0.1005,-0.1061,-0.1074,-0.1076,-0.1081,-0.1081,-0.1081,-0.1096,-0.1097,-0.1097,-0.1098,-0.1104,-0.1104,-0.1104,-0.109,0,0,-0.1103,-0.1103,0,0,0,0,0,0,0,0,-0.1023,-0.1026,-0.1072,-0.1073,-0.1075,-0.1089,-0.1063,-0.1084,-0.1096,-0.1085,-0.1097,-0.1098,-0.1099,-0.1099,-0.1098,-0.109,-0.1091,-0.1103,-0.1103,-0.1102,-0.1102,0,0,0,0,0,0,0,-0.1022,-0.1025,-0.1066,-0.1072,-0.1074,-0.1067,-0.1071,-0.1067,-0.1086,-0.1086,-0.1088,-0.1094,-0.11,-0.1098,-0.1098,-0.1091,-0.1103,-0.1102,-0.1102,-0.1102,-0.1121,-0.1121,0,0,0,0,0,0,-0.1026,-0.1024,-0.1066,-0.1067,-0.1053,-0.1068,-0.1072,-0.1082,-0.1087,-0.1089,-0.1094,-0.1095,-0.1098,-0.1099,-0.1099,-0.1142,-0.1102,-0.1102,-0.1102,-0.112,-0.1121,-0.1122,0,0,0,0,0,0,-0.1024,-0.1029,-0.1065,-0.1048,-0.1052,-0.1069,-0.1079,-0.1082,-0.1104,-0.1093,-0.1095,-0.1117,-0.1099,-0.1099,-0.1115,-0.114,-0.1102,-0.1102,-0.1119,-0.112,-0.1121,-0.119,0,0,0,0,0,0,-0.1023,-0.1029,-0.1044,-0.1048,-0.1053,-0.1086,-0.1079,-0.1082,-0.1107,-0.1109,-0.1113,-0.1113,-0.1099,-0.1115,-0.1115,-0.1139,-0.1102,-0.1118,-0.112,-0.1121,-0.1187,-0.1193,-0.1199,0,0,0,0,0,-0.1021,-0.1038,-0.1045,-0.105,-0.1072,-0.1087,-0.1089,-0.1101,-0.1108,-0.1122,-0.1124,-0.1114,-0.1122,-0.1116,-0.1115,-0.1139,-0.1118,-0.1119,-0.1121,-0.1184,-0.1192,-0.1199,0,0,0,0,0,0,-0.1022,-0.1041,-0.1049,-0.1073,-0.1088,-0.1091,-0.1108,-0.1115,-0.1128,-0.1135,-0.1123,-0.1123,-0.1145,-0.113,-0.1123,-0.1147,-0.1118,-0.1119,-0.1167,-0.1174,-0.1179,-0.1177,-0.1101,0,0,0,0,0,-0.1029,-0.1049,-0.1064,-0.1084,-0.1095,-0.1106,-0.1117,-0.1126,-0.1135,-0.1142,-0.1146,-0.1146,-0.1145,-0.1152,-0.1147,-0.1162,-0.1144,-0.1176,-0.1182,-0.1187,-0.1183,-0.1171,-0.1175,-0.1126,-0.1126,-0.1126,0,0,-0.1036,-0.1049,-0.1062,-0.1087,-0.1099,-0.1122,-0.1114,-0.114,-0.1161,-0.114,-0.1174,-0.1169,-0.1153,-0.117,-0.1179,-0.1166,-0.1196,-0.1189,-0.1193,-0.1187,-0.1173,-0.1178,-0.1182,-0.1127,-0.1127,-0.1127,0,0,-0.1053,-0.1073,-0.1094,-0.1112,-0.114,-0.1146,-0.1161,-0.118,-0.1194,-0.1221,-0.1208,-0.1216,-0.1227,-0.1215,-0.121,-0.1243,-0.1226,-0.1251,-0.1282,-0.1271,-0.1275,-0.1278,-0.1285,-0.1288,-0.1255,-0.1255,-0.1256,0,-0.1062,-0.109,-0.1103,-0.1129,-0.1149,-0.1163,-0.1191,-0.1205,-0.1228,-0.1239,-0.1244,-0.1251,-0.1243,-0.1249,-0.1264,-0.1257,-0.1255,-0.126,-0.128,-0.1282,-0.1284,-0.1289,-0.1292,-0.1259,-0.1259,-0.1258,-0.1258,0,-0.1088,-0.1122,-0.1138,-0.1175,-0.1198,-0.1225,-0.1247,-0.1274,-0.1294,-0.1302,-0.1325,-0.1311,-0.1313,-0.1316,-0.1303,-0.1316,-0.1313,-0.1289,-0.1264,-0.1293,-0.1297,-0.1298,-0.1264,-0.1263,-0.1262,-0.1261,0,0,-0.1073,-0.1144,-0.1149,-0.118,-0.1226,-0.1245,-0.1287,-0.1318,-0.1345,-0.1364,-0.139,-0.1388,-0.1382,-0.1374,-0.1359,-0.1351,-0.1373,-0.1336,-0.1334,-0.1346,-0.137,-0.1304,-0.1299,-0.1359,-0.1359,-0.1359,-0.1375,0,-0.1089,-0.1147,-0.1177,-0.1236,-0.1268,-0.1301,-0.1338,-0.1369,-0.1393,-0.1422,-0.141,-0.1426,-0.1404,-0.1412,-0.1403,-0.1377,-0.1377,-0.1372,-0.1335,-0.1334,-0.1274,-0.1297,-0.136,-0.1376,-0.1376,-0.1376,-0.1376,0,-0.1093,-0.1136,-0.1198,-0.1272,-0.1289,-0.1328,-0.1386,-0.1419,-0.1456,-0.1474,-0.1485,-0.1481,-0.1479,-0.1453,-0.1428,-0.1432,-0.141,-0.1386,-0.1386,-0.1296,-0.1269,-0.1333,-0.1378,-0.1378,-0.1378,-0.1378,-0.1378,0,-0.106,-0.1144,-0.1195,-0.1221,-0.1307,-0.1344,-0.1387,-0.1436,-0.1469,-0.1505,-0.1531,-0.1524,-0.1528,-0.1496,-0.1458,-0.1451,-0.1427,-0.1406,-0.1326,-0.1323,-0.1348,-0.1344,-0.1385,-0.1385,-0.1385,-0.1385,-0.1385,0,-0.1048,-0.1089,-0.1192,-0.1218,-0.1278,-0.1343,-0.1404,-0.144,-0.1502,-0.153,-0.1554,-0.156,-0.1539,-0.1524,-0.1481,-0.141,-0.1445,-0.1333,-0.1316,-0.138,-0.1379,-0.135,-0.1346,-0.1386,-0.1386,-0.1385,-0.1385,0,-0.0991,-0.1064,-0.1126,-0.123,-0.1265,-0.1305,-0.1412,-0.1449,-0.1517,-0.1557,-0.1572,-0.1598,-0.1568,-0.1545,-0.1493,-0.1433,-0.1372,-0.1338,-0.1429,-0.1418,-0.1276,-0.1275,-0.1253,-0.1251,-0.1249,-0.1247,-0.1246,0,-0.0964,-0.0995,-0.1111,-0.1151,-0.1202,-0.1282,-0.1333,-0.1432,-0.1468,-0.1556,-0.1558,-0.1577,-0.1573,-0.1456,-0.1433,-0.136,-0.133,-0.1311,-0.127,-0.1273,-0.126,-0.1262,-0.1264,-0.1243,-0.1242,-0.1242,-0.1241,0,-0.0899,-0.0951,-0.0998,-0.108,-0.1149,-0.1218,-0.1299,-0.1326,-0.1429,-0.1515,-0.1508,-0.1486,-0.1457,-0.1397,-0.1357,-0.1296,-0.1327,-0.1289,-0.1293,-0.1254,-0.126,-0.1249,-0.1253,-0.1234,-0.1235,-0.1236,-0.1236,0,-0.0838,-0.0853,-0.0921,-0.0979,-0.1064,-0.1111,-0.1183,-0.1238,-0.1294,-0.1409,-0.1397,-0.1411,-0.1448,-0.1364,-0.1318,-0.1265,-0.1232,-0.1186,-0.1194,-0.1202,-0.1171,-0.117,-0.1102,0,0,0,0,0,-0.076,-0.0762,-0.0815,-0.087,-0.0951,-0.0991,-0.1131,-0.1209,-0.1326,-0.1295,-0.1351,-0.1318,-0.1266,-0.1265,-0.119,-0.1265,-0.1222,-0.1173,-0.117,-0.1196,-0.1204,-0.1168,0,0,0,0,0,0,-0.0709,-0.0741,-0.0766,-0.0757,-0.0765,-0.0842,-0.0925,-0.1022,-0.1025,-0.1147,-0.1121,-0.1214,-0.1168,-0.1253,-0.1139,-0.1141,-0.1114,-0.1194,-0.1191,-0.1192,-0.1199,-0.1205,-0.1171,0,0,0,0,0]},{"header":{"parameterUnit":"m.s-1","parameterCategory":2,"la1":30.2991,"la2":30.254,"lo1":-89.0895,"lo2":-89.0444,"dy":0.0017,"dx":0.0017,"nx":28,"ny":28,"refTime":"2024-06-19T09:00:00:Z","depth":"4","parameterNumber":3,"parameterNumberName":"V-component_of_CURRENTS"},"data":[0,0,0,0,0,0,0,0,0,0,0,0,0,0,0,0,0,0,0,0,0,0,0,0,0,0,0,0,0,0,0,0,0,0,0,0,0,0,0,0,0,0,0,0,0,0,0,0,0,0,0,0,0,0,0,0,0,0,-0.006,-0.0059,0,0.0,0.0001,0.0001,0.0024,0.0024,0.0024,0.0024,0.0058,0.0059,0.006,0,0,0,0,0,0,0,0,0,0,0,0,0,-0.0143,-0.0142,-0.006,-0.0059,-0.0058,0.0,0.0001,0.0002,0.0024,0.0024,0.0024,0.0024,0.0058,0.0059,0.006,0,0,0,0,0,0,0,0,0,0,0,0,0,-0.0099,-0.0141,-0.006,-0.0039,-0.0036,0.0,0.0001,0.0002,0.0024,0.0024,0.0024,0.0024,0.0058,0.0059,0.006,0.007,0,0,0.0065,0.0065,0,0,0,0,0,0,0,0,-0.0101,-0.0096,-0.0043,-0.004,-0.0037,0.0006,-0.0016,0.0024,0.0024,-0.0,0.0024,0.0024,0.004,0.0042,0.0052,0.0072,0.0073,0.0065,0.0066,0.0066,0.0067,0,0,0,0,0,0,0,-0.0104,-0.0098,-0.0038,-0.0042,-0.0038,-0.0027,-0.0022,-0.0008,0.0017,0.0002,0.0004,0.0013,0.0041,0.005,0.0053,0.0073,0.0065,0.0066,0.0067,0.0067,0.0119,0.0119,0,0,0,0,0,0,-0.0109,-0.0101,-0.004,-0.0036,-0.0068,-0.0026,-0.0019,-0.0009,0.0018,0.0023,0.0013,0.0014,0.0048,0.0051,0.0054,0.0081,0.0066,0.0068,0.0068,0.0118,0.0119,0.012,0,0,0,0,0,0,-0.0111,-0.0104,-0.0042,-0.0066,-0.0057,-0.0024,-0.0013,-0.0008,0.0002,0.0027,0.0031,0.0018,0.0048,0.0052,0.0073,0.0082,0.0068,0.0069,0.0118,0.0119,0.0119,0.0125,0,0,0,0,0,0,-0.0114,-0.0105,-0.0105,-0.0066,-0.0056,-0.0024,-0.0012,-0.0006,0.0009,0.0011,0.0033,0.0036,0.0048,0.0071,0.0074,0.0083,0.0071,0.0117,0.0118,0.0119,0.0125,0.0126,0.0128,0,0,0,0,0,-0.0117,-0.0117,-0.0106,-0.0099,-0.0055,-0.0024,-0.0018,0.0004,0.0009,0.0013,0.0034,0.0035,0.0079,0.0072,0.0076,0.0086,0.0117,0.0118,0.0119,0.0124,0.0126,0.0128,0,0,0,0,0,0,-0.0157,-0.0114,-0.01,-0.0089,-0.0059,-0.002,-0.0017,0.0002,0.0022,0.002,0.0043,0.0048,0.0068,0.0077,0.0068,0.0104,0.0098,0.01,0.01,0.0102,0.0104,0.0096,0.0072,0,0,0,0,0,-0.0165,-0.0153,-0.0109,-0.0102,-0.0089,-0.0053,-0.004,-0.0022,0.0005,0.0013,0.0034,0.0054,0.0076,0.0088,0.0103,0.0124,0.0135,0.0133,0.0135,0.0136,0.0132,0.0165,0.0169,0.0123,0.0123,0.0123,0,0,-0.018,-0.0154,-0.0149,-0.011,-0.0088,-0.0068,-0.0046,-0.0028,-0.0008,0.0013,0.0037,0.0057,0.0082,0.0106,0.0116,0.0116,0.0155,0.0137,0.0138,0.0134,0.0166,0.0171,0.0175,0.0124,0.0124,0.0124,0,0,-0.0203,-0.018,-0.0178,-0.0152,-0.0116,-0.0088,-0.0083,-0.0041,-0.0021,0.0007,0.003,0.006,0.0086,0.0117,0.0133,0.0153,0.0159,0.0153,0.016,0.0192,0.0196,0.02,0.0218,0.0223,0.0159,0.0159,0.0159,0,-0.0225,-0.0209,-0.0174,-0.016,-0.0141,-0.0097,-0.0087,-0.0056,-0.0012,0.0008,0.001,0.0072,0.0093,0.014,0.0148,0.0157,0.0168,0.0151,0.0194,0.0198,0.0201,0.022,0.0225,0.0159,0.0159,0.0159,0.0159,0,-0.0238,-0.0225,-0.0222,-0.0186,-0.0162,-0.0148,-0.0096,-0.007,-0.0043,-0.0007,0.0038,0.0076,0.0114,0.013,0.0145,0.0187,0.0184,0.0189,0.0188,0.0206,0.0224,0.023,0.016,0.016,0.0159,0.0159,0,0,-0.0282,-0.0241,-0.024,-0.0229,-0.0175,-0.0157,-0.0119,-0.007,-0.0046,0.0002,0.0038,0.0092,0.0116,0.0136,0.0168,0.0202,0.0241,0.0204,0.0205,0.022,0.03,0.028,0.0284,0.0252,0.0253,0.0254,0.0302,0,-0.0304,-0.0298,-0.0261,-0.0246,-0.0237,-0.0179,-0.015,-0.0098,-0.005,-0.0004,0.0057,0.0094,0.012,0.0136,0.0179,0.0224,0.0256,0.0226,0.0282,0.0283,0.0261,0.029,0.0257,0.0306,0.0308,0.0309,0.0309,0,-0.0323,-0.0317,-0.0317,-0.0277,-0.0268,-0.025,-0.0193,-0.016,-0.0077,-0.0039,0.0024,0.0071,0.0142,0.0149,0.0244,0.0222,0.0257,0.0291,0.0294,0.0275,0.0274,0.0285,0.032,0.0319,0.0318,0.0317,0.0317,0,-0.0377,-0.0349,-0.0357,-0.0343,-0.0294,-0.0281,-0.0254,-0.0179,-0.0147,-0.0063,-0.0029,0.0062,0.0104,0.0169,0.0249,0.0244,0.0342,0.0344,0.0361,0.0359,0.0359,0.0355,0.04,0.04,0.04,0.04,0.04,0,-0.0406,-0.0409,-0.0387,-0.039,-0.0397,-0.0339,-0.0324,-0.0276,-0.0202,-0.016,-0.006,-0.0005,0.011,0.0187,0.0248,0.0325,0.0344,0.0364,0.0374,0.036,0.0355,0.0363,0.0358,0.0402,0.0401,0.0401,0.0401,0,-0.0454,-0.0442,-0.0451,-0.0426,-0.0424,-0.0431,-0.0386,-0.0366,-0.0285,-0.0225,-0.02,-0.0054,0.0052,0.016,0.0273,0.0318,0.0392,0.0409,0.0383,0.0389,0.0386,0.0381,0.0433,0.0433,0.0433,0.0432,0.0432,0,-0.0475,-0.0487,-0.0499,-0.0519,-0.0512,-0.0511,-0.0509,-0.043,-0.0394,-0.0252,-0.0226,-0.0096,0.0001,0.0151,0.0263,0.0381,0.0391,0.0424,0.0411,0.0387,0.0392,0.0387,0.0382,0.0432,0.0432,0.0432,0.0432,0,-0.0511,-0.0524,-0.0537,-0.0591,-0.0607,-0.0609,-0.059,-0.0565,-0.0455,-0.0383,-0.0245,-0.0122,0.0003,0.014,0.0235,0.0319,0.0403,0.0422,0.0423,0.0411,0.0387,0.039,0.0386,0.0431,0.0431,0.0431,0.0431,0,-0.0539,-0.0568,-0.0604,-0.0643,-0.0679,-0.0687,-0.0666,-0.0599,-0.0544,-0.037,-0.0331,-0.0154,-0.0039,0.0108,0.0198,0.028,0.0296,0.0309,0.0316,0.0318,0.0272,0.0223,0.0229,0,0,0,0,0,-0.0555,-0.0595,-0.0647,-0.0687,-0.0727,-0.0739,-0.0706,-0.0663,-0.0556,-0.0477,-0.0393,-0.0269,-0.0076,0.0026,0.01,0.017,0.029,0.0258,0.0302,0.0427,0.0428,0.0392,0,0,0,0,0,0,-0.0568,-0.0624,-0.0654,-0.0717,-0.075,-0.0777,-0.0757,-0.0685,-0.062,-0.0499,-0.0401,-0.0281,-0.0106,-0.0137,0.0088,0.0123,0.0155,0.0367,0.0369,0.0427,0.0428,0.0428,0.0391,0,0,0,0,0]}]]